CZ-6A DEB, 60819

Orbit data source: Space-Track

CZ-6A DEB, 60819 is space debris in LEO originally from a launch on Tue, 06 Aug 2024 UTC launched from the Taiyaun Space Center, China (TSC). Debris objects in space refer to the collection of defunct objects orbiting the Earth. Examples of debris include non-operational satellites, rocket bodies, and fragments generated from explosions, collisions, or faulty payload assembly.

Loading next visibility...
Identifier
60819, 2024-140GW
Orbit
LEO
Country
Flag of CNCN / PRC
Related business
Manufacturer
SAST
Mission
Spacecraft
Bus & Motor
Unknown
Mass
Unknown
Launch date (UTC)
2024-08-06 (2 years ago)
Launch vehicle
Unknown
Launch site
Taiyaun Space Center, China (TSC)
Object type
Payload
Rocket body
Debris
Shape & HBR
Unknown shape, 0.2 m
Radar Cross Section
Medium (>0.1 m² and <1 m²)

Expand to show TLE details & history
Last TLE update: 13 hours ago

TLE from 13 hours ago
0 CZ-6A DEB
1 60819U 24140GW  26171.32966378  .00000603  00000-0  92478-4 0  9999
2 60819  89.0345 271.4492 0162266 214.6151 144.4419 14.63660943 98823
Epoch: 2026-06-20T07:54Z
TLE epoch observation values (Epoch: 2026-06-20T07:54:42.950Z)
Latitude
-0.00002°
Longitude
-115.7756°
Altitude
778.321 km
Speed
7.415 km/s
True Right ascension
18h 05m 47s
True Declination
0° 00' 00"
Sunlit
Object was in full shadow at epoch
Visualization orbit readout
Latitude
Unknown
Longitude
Unknown
Altitude
Unknown
Speed
Unknown
Apparent Right ascension
Unknown
Apparent Declination
Unknown
Sunlit
N/A
Visualization observer readout
Local Sidereal Time
07:21:51
Azimuth
Unknown
Elevation
Unknown
Doppler factor
Unknown
Orbital elements
Apogee altitude
792.767 km
Perigee altitude
563.764 km
Semi-major axis
7,056.402 km
Eccentricity
0.01623
Inclination
89.0345°
RAAN
271.4492°
Arg. of periapsis
214.6151°
True anomaly
145.50559°
Mean anomaly
144.4419°
Eccentric anomaly
144.97549°
Mean motion
3.66158 °/min
Orbital period
98.32 mins
BSTAR
0.000092478
Loading maneuver chart data...
Computing Atmospheric mass density...
Loading historical data...
Loading historical data...
Loading historical data...
Loading historical data...
Loading historical data...
Loading historical data...
Loading historical data...

Documentation

Showing up to 5 results
|